When you browse on this site, cookies collect data to enhance your experience and personalize the content and advertising you see.
Visit our Privacy Policy to learn more. By continuing to use the site, you agree to this use of cookies and data.
  • en France
  • Liste des pays
  • À 7 jours
  • Température de l'eau
  • Carte satellitaire
  • Carte météo
  • Widgets météo
  • user-avatar
    Se connecter

    Météo par heure à Kitzbühel

    Ce jour, 17 Décembre, Lundi

    Heure Température Précipitation Vent Pression Humidité
    00:00 -1°C° 0 mm 1 m/s 674 mmHg 89%
    01:00 -2°C° 0 mm 1 m/s 674 mmHg 89%
    02:00 -2°C° 0 mm 1 m/s 674 mmHg 89%
    03:00 -2°C° 0 mm 1 m/s 674 mmHg 88%
    04:00 -2°C° 0 mm 1 m/s 674 mmHg 88%
    05:00 -2°C° 0 mm 1 m/s 674 mmHg 88%
    06:00 -3°C° 0 mm 1 m/s 674 mmHg 87%
    07:00 -3°C° 0 mm 1 m/s 675 mmHg 87%
    08:00 -2°C° 0 mm 1 m/s 675 mmHg 86%
    09:00 -1°C° 0 mm 1 m/s 676 mmHg 84%
    10:00 0°C° 0 mm 1 m/s 677 mmHg 82%
    11:00 +1°C° 0 mm 1 m/s 677 mmHg 82%
    12:00 +2°C° 0 mm 1 m/s 678 mmHg 81%
    13:00 +3°C° 0 mm 1 m/s 678 mmHg 80%
    14:00 +2°C° 0 mm 1 m/s 678 mmHg 83%
    15:00 +1°C° 0 mm 1 m/s 679 mmHg 85%
    16:00 +1°C° 0 mm 1 m/s 679 mmHg 88%
    17:00 0°C° 0.1 mm 1 m/s 680 mmHg 88%
    18:00 -2°C° 0.1 mm 2 m/s 680 mmHg 88%
    19:00 -2°C° 0.1 mm 2 m/s 681 mmHg 88%
    20:00 -3°C° 0.2 mm 2 m/s 681 mmHg 89%
    21:00 -3°C° 0.2 mm 2 m/s 682 mmHg 90%
    22:00 -3°C° 0.2 mm 2 m/s 682 mmHg 90%
    23:00 -3°C° 0.2 mm 2 m/s 682 mmHg 91%

    Demain, 18 Décembre, Mardi

    Heure Température Précipitation Vent Pression Humidité
    00:00 -1°C° 0.2 mm 1 m/s 682 mmHg 92%
    01:00 -1°C° 0.2 mm 1 m/s 683 mmHg 93%
    02:00 -1°C° 0 mm 1 m/s 682 mmHg 92%
    03:00 -1°C° 0 mm 1 m/s 682 mmHg 92%
    04:00 -2°C° 0 mm 1 m/s 682 mmHg 91%
    05:00 -2°C° 0 mm 1 m/s 682 mmHg 90%
    06:00 -3°C° 0 mm 1 m/s 682 mmHg 88%
    07:00 -3°C° 0 mm 1 m/s 682 mmHg 86%
    08:00 -2°C° 0 mm 1 m/s 682 mmHg 82%
    09:00 -1°C° 0 mm 1 m/s 682 mmHg 78%
    10:00 0°C° 0 mm 1 m/s 682 mmHg 74%
    11:00 +1°C° 0 mm 1 m/s 682 mmHg 73%
    12:00 +3°C° 0 mm 1 m/s 681 mmHg 71%
    13:00 +4°C° 0 mm 1 m/s 681 mmHg 70%
    14:00 +3°C° 0 mm 1 m/s 680 mmHg 73%
    15:00 +2°C° 0 mm 1 m/s 680 mmHg 76%
    16:00 -2°C° 0 mm 2 m/s 679 mmHg 79%
    17:00 -2°C° 0 mm 2 m/s 679 mmHg 76%
    18:00 -3°C° 0 mm 2 m/s 679 mmHg 73%
    19:00 -4°C° 0 mm 2 m/s 679 mmHg 71%
    20:00 -4°C° 0 mm 2 m/s 679 mmHg 68%
    21:00 -4°C° 0 mm 2 m/s 678 mmHg 65%
    22:00 -4°C° 0 mm 2 m/s 678 mmHg 62%
    23:00 -4°C° 0 mm 2 m/s 678 mmHg 61%

    Après-demain, 19 Décembre, Mercredi

    Heure Température Précipitation Vent Pression Humidité
    00:00 -3°C° 0 mm 2 m/s 678 mmHg 60%
    01:00 -3°C° 0 mm 2 m/s 677 mmHg 58%
    02:00 -3°C° 0 mm 2 m/s 677 mmHg 58%
    03:00 -3°C° 0 mm 2 m/s 677 mmHg 57%
    04:00 -3°C° 0 mm 2 m/s 676 mmHg 56%
    05:00 -3°C° 0 mm 2 m/s 676 mmHg 56%
    06:00 -2°C° 0 mm 2 m/s 676 mmHg 56%
    07:00 0°C° 0 mm 1 m/s 676 mmHg 56%
    08:00 +1°C° 0 mm 1 m/s 677 mmHg 58%
    09:00 +2°C° 0 mm 1 m/s 677 mmHg 59%
    10:00 +3°C° 0 mm 1 m/s 677 mmHg 61%
    11:00 +3°C° 0 mm 1 m/s 677 mmHg 63%
    12:00 +4°C° 0 mm 1 m/s 676 mmHg 65%
    13:00 +5°C° 0 mm 1 m/s 676 mmHg 67%
    14:00 +4°C° 0 mm 1 m/s 676 mmHg 68%
    15:00 +3°C° 0 mm 1 m/s 675 mmHg 69%
    16:00 +2°C° 0 mm 1 m/s 675 mmHg 70%
    17:00 +1°C° 0 mm 1 m/s 675 mmHg 71%
    18:00 0°C° 0 mm 1 m/s 675 mmHg 71%
    19:00 -3°C° 0 mm 2 m/s 675 mmHg 72%
    20:00 -3°C° 0 mm 2 m/s 675 mmHg 73%
    21:00 -3°C° 0 mm 2 m/s 675 mmHg 74%
    22:00 -3°C° 0 mm 2 m/s 675 mmHg 75%
    23:00 -1°C° 0 mm 1 m/s 675 mmHg 77%

    20 Décembre, Jeudi

    Heure Température Précipitation Vent Pression Humidité
    00:00 -1°C° 0 mm 1 m/s 675 mmHg 80%
    01:00 -1°C° 0 mm 1 m/s 675 mmHg 82%
    02:00 -1°C° 0.3 mm 1 m/s 675 mmHg 85%
    03:00 0°C° 0.3 mm 1 m/s 674 mmHg 87%
    04:00 0°C° 0.3 mm 1 m/s 674 mmHg 90%
    05:00 0°C° 0.9 mm 1 m/s 675 mmHg 91%
    06:00 +1°C° 0.9 mm 1 m/s 675 mmHg 93%
    07:00 +1°C° 0.9 mm 1 m/s 675 mmHg 95%
    08:00 +1°C° 0.9 mm 1 m/s 675 mmHg 95%
    09:00 +2°C° 0.9 mm 1 m/s 675 mmHg 95%
    10:00 +2°C° 0.9 mm 1 m/s 675 mmHg 95%
    11:00 +2°C° 1 mm 1 m/s 675 mmHg 95%
    12:00 +1°C° 1 mm 2 m/s 675 mmHg 95%
    13:00 +1°C° 1 mm 2 m/s 675 mmHg 94%
    14:00 +1°C° 0.5 mm 2 m/s 675 mmHg 95%
    15:00 +1°C° 0.5 mm 2 m/s 676 mmHg 95%
    16:00 -1°C° 0.5 mm 2 m/s 676 mmHg 95%
    17:00 -1°C° 0.2 mm 2 m/s 676 mmHg 94%
    18:00 -2°C° 0.2 mm 2 m/s 676 mmHg 93%
    19:00 -2°C° 0.2 mm 2 m/s 677 mmHg 93%
    20:00 -2°C° 0.1 mm 2 m/s 677 mmHg 91%
    21:00 -3°C° 0.1 mm 2 m/s 677 mmHg 89%
    22:00 -3°C° 0.1 mm 2 m/s 677 mmHg 87%
    23:00 -3°C° 0.1 mm 2 m/s 677 mmHg 87%

    21 Décembre, Vendredi

    Heure Température Précipitation Vent Pression Humidité
    00:00 -4°C° 0.1 mm 2 m/s 678 mmHg 86%
    01:00 -4°C° 0.1 mm 2 m/s 678 mmHg 85%
    02:00 -4°C° 0.1 mm 2 m/s 678 mmHg 85%
    03:00 -4°C° 0.1 mm 2 m/s 678 mmHg 84%
    04:00 -4°C° 0.1 mm 2 m/s 678 mmHg 84%
    05:00 -4°C° 0.1 mm 2 m/s 678 mmHg 83%
    06:00 -4°C° 0.1 mm 2 m/s 678 mmHg 82%
    07:00 -4°C° 0.1 mm 2 m/s 678 mmHg 81%
    08:00 -3°C° 0.1 mm 2 m/s 679 mmHg 81%
    09:00 -2°C° 0.1 mm 2 m/s 679 mmHg 81%
    10:00 -1°C° 0.1 mm 2 m/s 679 mmHg 81%
    11:00 +2°C° 0.1 mm 1 m/s 679 mmHg 80%
    12:00 +3°C° 0.1 mm 1 m/s 678 mmHg 79%
    13:00 +3°C° 0.1 mm 1 m/s 678 mmHg 78%
    14:00 +3°C° 0.1 mm 1 m/s 678 mmHg 79%
    15:00 +3°C° 0.1 mm 1 m/s 678 mmHg 79%
    16:00 +1°C° 0.1 mm 2 m/s 677 mmHg 80%
    17:00 +1°C° 0.1 mm 2 m/s 677 mmHg 79%
    18:00 +1°C° 0.1 mm 2 m/s 677 mmHg 79%
    19:00 -1°C° 0.1 mm 2 m/s 677 mmHg 78%
    20:00 +1°C° 0.2 mm 2 m/s 677 mmHg 79%
    21:00 +1°C° 0.2 mm 2 m/s 677 mmHg 80%
    22:00 +1°C° 0.2 mm 2 m/s 677 mmHg 81%
    23:00 +1°C° 0.6 mm 2 m/s 677 mmHg 83%

    22 Décembre, Samedi

    Heure Température Précipitation Vent Pression Humidité
    00:00 +2°C° 0.6 mm 2 m/s 677 mmHg 85%
    01:00 +2°C° 0.6 mm 2 m/s 677 mmHg 87%
    02:00 +2°C° 1 mm 2 m/s 677 mmHg 89%
    03:00 +3°C° 1 mm 2 m/s 677 mmHg 90%
    04:00 +3°C° 1 mm 2 m/s 677 mmHg 91%
    05:00 +3°C° 0.2 mm 2 m/s 677 mmHg 91%
    06:00 +3°C° 0.2 mm 2 m/s 678 mmHg 92%
    07:00 +4°C° 0.2 mm 2 m/s 678 mmHg 93%
    08:00 +4°C° 0.1 mm 2 m/s 678 mmHg 93%
    09:00 +4°C° 0.1 mm 2 m/s 679 mmHg 94%
    10:00 +5°C° 0.1 mm 2 m/s 680 mmHg 94%
    11:00 +5°C° 0 mm 2 m/s 680 mmHg 94%
    12:00 +5°C° 0 mm 2 m/s 680 mmHg 94%
    13:00 +5°C° 0 mm 2 m/s 680 mmHg 94%
    14:00 +5°C° 0 mm 2 m/s 680 mmHg 92%
    15:00 +4°C° 0 mm 2 m/s 680 mmHg 91%
    16:00 +3°C° 0 mm 2 m/s 680 mmHg 90%
    17:00 +3°C° 0 mm 2 m/s 680 mmHg 85%
    18:00 +3°C° 0 mm 2 m/s 680 mmHg 81%
    19:00 +3°C° 0 mm 2 m/s 681 mmHg 77%
    20:00 +3°C° 0.4 mm 2 m/s 681 mmHg 80%
    21:00 +4°C° 0.4 mm 1 m/s 681 mmHg 83%
    22:00 +4°C° 0.4 mm 1 m/s 681 mmHg 86%
    23:00 +4°C° 0.5 mm 1 m/s 681 mmHg 87%
    Voir plus